Powrót do katalogu

PRAETORIAN SDA_613

AktywnyMilitariaPO
NORAD 65576·PAYLOAD·🇺🇸 United States

Wystrzelony Sep 10, 2025 z Vandenberg Space Force Base

Loading…

Następne Przeloty (najbliższe 24 godziny)

TLE

ŚwieżeSource: Space-Track

Epoka: Sep 14, 2026, 08:28 UTC

1 65576U 25203M   26257.35296711  .00000042  00000-0  28055-4 0  9997
2 65576  81.2973 288.5268 0004866 320.4947  39.5854 13.82772338 51007

Śledź PRAETORIAN SDA_613 w czasie rzeczywistym z AllMySat

Download on the App Store